Location: Unspecified
(33.4100°N, 0.0000°E)
Time: 20:53:04
(UTC+00:00)

UNK - Visible Passes

Search period start: 04 April 2026 00:00
Search period end: 14 April 2026 00:00
Orbit: 673 x 689 km, 98.4° (Epoch: 29 March)

Date Brightness Start Highest point End Pass type
(mag) Time Alt. Az. Time Alt. Az. Time Alt. Az.
4 Apr ? 03:54:51 48° S 03:56:03 72° WSW 04:00:43 10° NNW visible
5 Apr ? 02:52:29 15° ESE 02:55:03 24° ENE 02:58:45 10° NNE visible
5 Apr ? 04:30:54 24° WSW 04:32:08 28° W 04:36:08 10° NW visible
6 Apr ? 03:28:31 28° SE 03:30:50 58° ENE 03:35:26 10° N visible
6 Apr ? 05:07:20 10° WSW 05:08:24 11° W 05:09:28 10° W visible
7 Apr ? 02:28:00 10° E 02:30:03 13° ENE 02:32:05 10° NE visible
7 Apr ? 04:04:34 28° SSW 04:06:48 54° W 04:11:23 10° NNW visible
8 Apr ? 03:02:11 13° SE 03:05:42 30° ENE 03:09:47 10° N visible
8 Apr ? 04:40:36 15° SW 04:42:56 21° W 04:46:30 10° NW visible
9 Apr ? 03:38:13 19° SSE 03:41:33 77° ENE 03:46:14 10° N visible
10 Apr ? 02:37:46 10° ESE 02:40:40 17° ENE 02:43:35 10° NNE visible
10 Apr ? 04:14:15 16° SSW 04:17:34 41° W 04:21:59 10° NNW visible
11 Apr ? 03:12:03 10° SE 03:16:23 39° ENE 03:20:43 10° N visible
11 Apr ? 04:50:49 10° SW 04:53:44 16° W 04:56:41 10° NW visible
12 Apr ? 03:47:56 12° S 03:52:16 82° WSW 03:56:58 10° NNW visible
13 Apr ? 02:47:49 10° ESE 02:51:17 21° ENE 02:54:47 10° NNE visible
13 Apr ? 04:24:12 10° SSW 04:28:20 31° W 04:32:30 10° NW visible
